Regional Weather Roundup
Issued by NWS Newport/Morehead, NC

Current Version | Previous Version | Graphics & Text | Print | Product List | Glossary On
Versions: 1 2 3 4 5 6 7 8 9 10 11 12 13 14 15 16 17 18 19 20 21 22 23 24 25 26 27 28 29 30 31 32 33 34 35 36 37 38 39 40 41 42 43 44 45 46 47 48 49 50
000 ASUS42 KMHX 212325 RWRMHX WEATHER ROUNDUP FOR EASTERN NORTH CAROLINA NATIONAL WEATHER SERVICE NEWPORT/MOREHEAD CITY NC 600 PM EST WED FEB 21 2018 NOTE: "FAIR" INDICATES FEW OR NO CLOUDS BELOW 12,000 FEET WITH NO SIGNIFICANT WEATHER AND/OR OBSTRUCTIONS TO VISIBILITY NCZ015>017-031-032-045>047-102-103-220000- NORTH COAST CITY SKY/WX TMP DP RH WIND PRES REMARKS EDENTON FAIR 69 64 83 CALM 30.41S ELIZABETH CITY FAIR 73 62 68 S5 30.40S KITTY HAWK FAIR 68 61 77 S5 30.41R MANTEO FAIR 64 60 87 S13 30.43R $$ NCZ045>047-081-094-103-104-220000- CENTRAL COAST CITY SKY/WX TMP DP RH WIND PRES REMARKS FRISCO FAIR 68 66 93 SW7 30.46R $$ NCZ095-097-098-100-101-220000- SOUTHERN COAST CITY SKY/WX TMP DP RH WIND PRES REMARKS BEAUFORT FAIR 69 65 86 S9 30.45R CEDAR ISLAND NOT AVBL JACKSONVILLE FAIR 73 64 73 S12 30.42R PINEY ISLAND NOT AVBL WILMINGTON FAIR 72 65 78 S9 30.44R $$ NCZ011>013-027>030-043-044-078>080-089-090>093-098-220000- COASTAL PLAIN CITY SKY/WX TMP DP RH WIND PRES REMARKS AHOSKIE FAIR 67 65 91 CALM 30.40S CLINTON FAIR 75 64 67 CALM 30.42R ELIZABETHTOWN NOT AVBL GOLDSBORO FAIR 76 61 58 S5 30.39R GREENVILLE FAIR 72 61 68 CALM 30.41R HAVELOCK CLEAR 71 67 87 S8 30.45R KENANSVILLE FAIR 75 63 64 CALM 30.41S KINSTON FAIR 73 59 60 CALM 30.41R NEW BERN FAIR 71 62 73 S9 30.44R RICHLANDS FAIR 73 65 75 S9 30.42R ROCKY MOUNT N/A 69 63 81 CALM 30.40S WASHINGTON FAIR 74 61 62 S6 30.41S WHITEVILLE FAIR 74 64 70 S8 30.42R $$ AMZ130-135-150-152-154-156-158-170-250-252-270-ANZ085-086-088-633-658-670-220000- MARINE OBSERVATIONS STATION/POSITION TIME TEMP WIND PRES WAVE SWELL AIR SEA DIR/SP/G HT/PER HT/PER (UTC) (F) (DEG/KT/KT) (MB) (FT/S) (FT/S) CHESAPEAKE LIGHT NOT AVBL 64 E VA BEACH 2250 55 52 200/ 8/ 8 1030.6 3/12 3/12 DUCK 2300 69 45 170/ 8/ 9 1029.4 2 E DUCK 2300 49 N/A 2/14 2/14 OREGON INLET 2300 64 63 180/ 12/ 14 1030.6 13E OREGON INLT 2248 49 N/A 3/12 3/12 HATTERAS CG 2300 66 60 190/ 3/ 5 1031.2 DIAMOND BUOY 2310 72 220/ 8/ 10 1031.8 CAPE LOOKOUT 2300 200/ 5/ 6 1031.7 BEAUFORT LAB 2300 62 59 190/ 6/ 7 1031.4 30 SE NEW RVR IN 2208 72 71 190/ 4/ 8 1031.3 30 SE NEW RVR IN 2300 70 N/A 4/13 2/13 27 SE WRIGHTSVLE 2208 70 69 190/ 4/ 8 1031.3 5 SE WRIGHTSVLE 2308 63 59 190/ 6/ 8 1030.7 225 S CAPE HAT 2250 72 74 120/ 8/ 12 1032.3 5/12 5/12 41 SE CHARLESTON 2310 71 110/ 4/ 6 1031.3 $$

USA.gov is the U.S. government's official web portal to all federal, state and local government web resources and services.